Wind_Speed
35 37 39 41 42 43 43 42 42 44 47 48 47 48 49 51 52 54 53 53 55 56 58 60 62 64 64 66 68 68 68 67 67
43 44 44 44 43 44 44 45 47 49 51 51 50 53 53 56 58 56 56 58 60 60 61 63 64 64 67 68 67 68 69 68 68
47 46 47 47 48 48 49 51 52 53 53 53 54 56 57 55 57 59 60 61 62 63 65 66 64 64 66 67 66 65 66 67 66
49 50 51 52 53 53 52 53 55 56 55 56 58 59 59 60 59 62 63 65 65 66 64 64 62 63 65 65 65 65 66 65 64
53 54 54 54 55 55 55 58 59 59 59 59 61 61 62 63 65 68 69 66 64 63 63 62 62 61 62 62 63 60 59 57 54
57 55 55 56 57 58 59 61 61 61 61 62 63 64 66 68 67 65 64 64 64 63 61 60 61 61 61 60 58 57 53 50 50
57 57 58 60 61 62 63 64 64 65 65 64 66 67 68 68 67 67 65 62 64 63 59 59 59 60 60 59 59 55 49 51 47
62 62 64 65 65 66 64 65 65 65 67 68 68 69 70 68 68 67 66 63 63 61 61 59 58 59 59 58 57 55 51 50 45
66 66 67 66 66 66 67 67 68 69 70 71 71 71 69 68 67 67 67 65 64 62 57 56 58 58 54 55 53 51 48 48 48
64 66 67 68 67 69 70 70 71 71 73 74 71 70 70 68 67 67 66 65 65 59 57 59 63 57 57 54 56 54 51 51 48
67 70 71 72 72 73 73 74 74 75 75 74 71 70 70 68 68 67 66 66 65 62 61 63 62 62 61 58 59 57 58 57 54
71 72 74 76 76 76 76 75 76 75 75 72 72 72 70 69 69 68 68 66 62 65 66 65 65 64 63 62 61 59 61 62 62
76 77 77 78 78 78 78 79 78 77 74 72 72 72 72 71 70 68 66 66 66 67 69 69 69 67 68 67 66 63 62 65 67
79 80 81 79 80 80 80 78 76 73 74 76 74 73 74 69 69 67 66 66 69 70 69 72 71 72 72 70 68 66 64 69 68
85 82 82 82 79 81 79 77 76 76 76 74 73 73 70 67 68 69 71 72 73 72 75 73 74 75 75 73 72 70 70 73 73
83 84 83 81 80 81 81 80 79 79 77 77 77 75 71 71 71 71 73 75 75 75 75 77 78 79 76 76 75 74 74 76 75
83 83 83 83 83 82 83 84 82 82 81 81 77 77 74 74 73 74 75 78 77 76 78 81 82 82 79 80 78 77 77 75 76
86 86 87 85 85 84 85 86 84 81 80 81 80 76 75 76 76 75 78 79 80 81 84 83 84 85 83 82 79 78 76 77 81
89 88 87 89 87 86 89 88 85 84 83 85 82 79 79 80 79 82 83 83 85 87 87 87 87 88 85 86 83 84 80 83 87
92 93 91 91 90 90 88 87 87 89 85 84 84 83 83 82 84 83 86 87 90 90 90 89 89 92 88 87 87 87 89 91 91
Wind_Direction
279 280 282 284 287 289 291 294 293 292 291 292 293 293 295 296 297 297 297 297 299 302 301 302 300 299 297 298 296 294 295 292 292
277 280 282 284 285 286 288 287 286 287 289 290 293 294 295 297 298 298 299 299 300 302 302 302 302 300 298 298 297 294 295 294 294
275 278 281 282 284 285 286 287 289 291 292 292 294 295 297 298 298 298 299 302 302 302 303 304 303 302 300 298 298 297 297 295 295
276 278 279 280 283 285 289 289 290 292 292 293 295 297 297 297 298 301 302 302 302 302 303 301 302 302 302 302 300 300 298 297 296
277 280 282 285 286 287 289 290 292 294 295 295 295 296 297 299 300 301 301 302 302 303 302 303 304 306 306 307 306 305 303 299 297
280 281 284 286 287 288 290 291 292 293 294 294 295 296 298 300 302 303 304 304 302 303 305 306 306 309 309 308 306 305 308 308 303
281 281 284 286 286 288 290 291 292 292 294 295 297 298 300 301 301 303 304 305 305 307 306 306 308 311 311 310 311 307 305 305 306
281 282 284 286 287 288 289 291 292 294 295 297 298 300 301 302 304 304 305 307 306 307 307 307 310 312 314 313 314 311 306 306 306
280 282 284 286 288 289 290 292 294 296 297 298 300 301 302 304 305 305 307 307 306 307 305 306 309 311 313 313 312 318 318 315 309
282 283 285 287 289 291 292 294 295 296 298 299 302 302 303 305 305 304 305 304 304 302 302 305 308 311 311 312 315 313 317 324 319
281 285 286 288 289 291 294 295 296 298 300 302 302 302 303 303 303 302 302 302 300 301 301 305 307 308 309 311 315 314 316 317 318
283 285 287 289 291 293 294 296 298 300 301 301 301 302 301 300 300 299 298 298 296 298 300 303 304 309 310 311 312 312 312 313 315
285 286 288 289 291 293 294 296 298 299 300 299 299 298 298 297 295 295 294 294 295 296 299 301 304 306 307 310 310 311 308 310 312
285 286 287 289 292 292 294 295 297 297 295 297 296 295 296 294 292 291 292 292 292 296 297 301 303 304 307 306 307 307 305 306 310
284 286 288 289 290 292 293 293 292 292 292 292 292 292 291 290 289 288 289 289 292 295 298 300 301 302 304 305 306 305 305 309 309
285 287 288 288 288 290 291 291 289 288 288 288 289 289 286 287 287 287 289 291 292 294 295 298 299 300 303 305 304 304 304 306 306
285 286 286 286 287 287 288 288 287 286 288 288 288 287 286 285 287 287 288 288 291 293 295 297 298 299 301 302 303 303 301 302 303
283 282 283 284 284 285 285 285 285 284 287 286 286 285 284 287 287 287 288 289 291 292 296 297 296 298 299 301 301 299 298 298 299
282 283 282 282 284 284 285 283 282 283 285 285 284 286 285 285 286 288 288 289 290 292 293 294 295 297 298 300 300 298 295 297 298
278 280 281 282 283 283 281 281 282 283 283 282 283 284 284 285 286 286 288 289 290 292 292 293 295 296 296 296 296 295 295 297 298
Height
10902 10903 10902 10902 10902 10901 10900 10898 10896 10894 10893 10890 10888 10886 10884 10881 10879 10876 10872 10868 10864 10861 10858 10854 10849 10845 10840 10835 10831 10825 10820 10816 10812
10897 10897 10897 10896 10895 10894 10893 10891 10890 10888 10886 10884 10881 10879 10877 10874 10872 10868 10864 10860 10856 10853 10848 10843 10839 10833 10827 10823 10818 10813 10808 10803 10799
10891 10890 10889 10889 10889 10888 10887 10885 10883 10881 10878 10876 10873 10871 10869 10865 10863 10858 10856 10851 10846 10843 10838 10831 10827 10821 10815 10810 10805 10800 10794 10790 10785
10884 10883 10883 10883 10882 10880 10879 10877 10875 10873 10870 10867 10864 10862 10859 10855 10853 10848 10845 10841 10836 10831 10827 10820 10814 10810 10803 10797 10793 10787 10781 10777 10773
10877 10877 10875 10874 10873 10871 10869 10867 10866 10864 10861 10858 10855 10852 10849 10845 10842 10838 10835 10830 10824 10819 10815 10810 10803 10797 10792 10786 10780 10775 10769 10764 10761
10868 10868 10866 10864 10863 10862 10860 10859 10857 10854 10851 10848 10845 10842 10839 10835 10831 10828 10823 10818 10812 10808 10803 10798 10792 10786 10781 10775 10770 10764 10759 10754 10750
10859 10858 10857 10856 10854 10853 10851 10849 10847 10844 10840 10837 10834 10831 10827 10824 10820 10816 10812 10807 10801 10795 10791 10786 10781 10776 10770 10765 10759 10754 10749 10745 10742
10849 10848 10847 10846 10845 10842 10841 10839 10836 10833 10829 10826 10822 10818 10814 10811 10806 10802 10798 10796 10790 10785 10780 10775 10770 10766 10761 10755 10750 10745 10740 10737 10733
10839 10838 10837 10836 10834 10832 10830 10828 10824 10821 10818 10814 10810 10805 10801 10797 10793 10788 10784 10782 10778 10774 10770 10766 10761 10756 10752 10748 10742 10738 10733 10729 10726
10829 10827 10826 10825 10824 10820 10818 10816 10814 10810 10805 10801 10797 10792 10787 10784 10780 10774 10772 10768 10766 10762 10759 10756 10751 10747 10743 10739 10734 10729 10725 10721 10718
10820 10817 10815 10812 10811 10808 10805 10803 10801 10797 10793 10787 10783 10779 10774 10770 10767 10763 10760 10757 10753 10750 10748 10744 10740 10736 10733 10728 10724 10720 10716 10712 10709
10808 10806 10802 10800 10798 10795 10792 10790 10787 10783 10779 10773 10769 10765 10762 10758 10755 10752 10747 10745 10741 10739 10735 10732 10728 10725 10721 10717 10713 10709 10705 10701 10698
10794 10792 10789 10786 10784 10782 10779 10776 10773 10769 10763 10759 10756 10753 10749 10746 10741 10739 10737 10732 10730 10727 10723 10719 10715 10712 10709 10705 10702 10698 10694 10690 10686
10777 10777 10775 10773 10770 10766 10764 10761 10758 10755 10749 10746 10742 10739 10736 10733 10727 10726 10724 10721 10717 10713 10710 10706 10702 10698 10695 10692 10688 10685 10682 10678 10674
10763 10764 10760 10759 10757 10751 10749 10746 10743 10739 10736 10733 10729 10726 10722 10718 10715 10713 10709 10706 10705 10701 10694 10691 10687 10684 10681 10677 10673 10669 10667 10661 10657
10748 10747 10745 10743 10741 10736 10732 10730 10728 10724 10722 10718 10715 10712 10708 10704 10700 10698 10694 10691 10688 10685 10682 10677 10672 10668 10665 10661 10657 10652 10649 10646 10641
10734 10730 10728 10726 10723 10722 10715 10714 10710 10707 10705 10702 10701 10697 10695 10688 10686 10683 10679 10676 10674 10669 10666 10662 10656 10651 10649 10645 10642 10636 10632 10628 10623
10717 10715 10710 10709 10706 10703 10701 10696 10694 10690 10689 10684 10685 10680 10678 10674 10671 10668 10663 10661 10658 10654 10650 10645 10639 10635 10633 10628 10625 10620 10618 10614 10609
10700 10696 10694 10692 10688 10686 10682 10679 10675 10673 10672 10667 10664 10665 10662 10658 10656 10649 10648 10644 10640 10636 10633 10628 10623 10616 10615 10611 10608 10601 10600 10596 10594
10684 10679 10677 10673 10672 10668 10665 10659 10659 10653 10652 10649 10646 10644 10642 10640 10638 10636 10629 10626 10621 10617 10613 10610 10606 10600 10596 10595 10590 10586 10580 10575 10572